Previsão horária em Abhar

Hoje, 18 Maio, Terça-feira

Tempo Temperatura Precipitação Vento Pressão Humidade
00:00 +19°C° 0 mm 1 m/s 621 mmHg 35%
01:00 +18°C° 0 mm 1 m/s 620 mmHg 34%
02:00 +18°C° 0 mm 1 m/s 620 mmHg 33%
03:00 +18°C° 0 mm 1 m/s 620 mmHg 33%
04:00 +18°C° 0 mm 2 m/s 621 mmHg 32%
05:00 +18°C° 0 mm 2 m/s 621 mmHg 32%
06:00 +19°C° 0 mm 2 m/s 622 mmHg 32%
07:00 +27°C° 0 mm 8 m/s 623 mmHg 17%
08:00 +26°C° 0 mm 8 m/s 623 mmHg 17%
09:00 +24°C° 0 mm 7 m/s 623 mmHg 18%
10:00 +26°C° 0 mm 8 m/s 623 mmHg 17%
11:00 +27°C° 0 mm 8 m/s 623 mmHg 17%
12:00 +28°C° 0 mm 8 m/s 623 mmHg 16%
13:00 +29°C° 0 mm 9 m/s 623 mmHg 16%
14:00 +29°C° 0 mm 10 m/s 623 mmHg 15%
15:00 +29°C° 0 mm 11 m/s 622 mmHg 14%
16:00 +28°C° 0 mm 10 m/s 622 mmHg 17%
17:00 +27°C° 0 mm 9 m/s 622 mmHg 21%
18:00 +24°C° 0 mm 8 m/s 622 mmHg 24%
19:00 +23°C° 0 mm 7 m/s 622 mmHg 27%
20:00 +21°C° 0 mm 5 m/s 622 mmHg 30%
21:00 +20°C° 0 mm 4 m/s 622 mmHg 33%
22:00 +19°C° 0 mm 4 m/s 621 mmHg 35%
23:00 +18°C° 0 mm 3 m/s 621 mmHg 37%

Amanhã, 19 Maio, Quarta-feira

Tempo Temperatura Precipitação Vento Pressão Humidade
00:00 +17°C° 0 mm 2 m/s 621 mmHg 39%
01:00 +17°C° 0 mm 2 m/s 621 mmHg 40%
02:00 +16°C° 0 mm 2 m/s 620 mmHg 40%
03:00 +16°C° 0 mm 2 m/s 620 mmHg 40%
04:00 +17°C° 0 mm 2 m/s 621 mmHg 39%
05:00 +17°C° 0 mm 2 m/s 621 mmHg 38%
06:00 +18°C° 0 mm 2 m/s 621 mmHg 37%
07:00 +20°C° 0 mm 2 m/s 622 mmHg 32%
08:00 +23°C° 0 mm 2 m/s 623 mmHg 27%
09:00 +24°C° 0 mm 3 m/s 623 mmHg 22%
10:00 +26°C° 0 mm 3 m/s 623 mmHg 20%
11:00 +27°C° 0 mm 4 m/s 623 mmHg 17%
12:00 +28°C° 0 mm 4 m/s 623 mmHg 15%
13:00 +29°C° 0 mm 4 m/s 623 mmHg 14%
14:00 +29°C° 0 mm 4 m/s 623 mmHg 13%
15:00 +30°C° 0 mm 5 m/s 623 mmHg 12%
16:00 +29°C° 0 mm 4 m/s 623 mmHg 17%
17:00 +27°C° 0 mm 3 m/s 622 mmHg 21%
18:00 +26°C° 0 mm 2 m/s 622 mmHg 26%
19:00 +25°C° 0 mm 2 m/s 622 mmHg 31%
20:00 +23°C° 0 mm 2 m/s 622 mmHg 37%
21:00 +21°C° 0 mm 1 m/s 622 mmHg 42%
22:00 +21°C° 0 mm 1 m/s 621 mmHg 42%
23:00 +20°C° 0 mm 1 m/s 621 mmHg 41%

Depois de amanhã, 20 Maio, Quinta-feira

Tempo Temperatura Precipitação Vento Pressão Humidade
00:00 +19°C° 0 mm 2 m/s 621 mmHg 41%
01:00 +18°C° 0 mm 2 m/s 621 mmHg 43%
02:00 +18°C° 0 mm 2 m/s 621 mmHg 45%
03:00 +17°C° 0 mm 2 m/s 621 mmHg 48%
04:00 +17°C° 0 mm 2 m/s 622 mmHg 50%
05:00 +17°C° 0 mm 2 m/s 622 mmHg 52%
06:00 +17°C° 0 mm 2 m/s 623 mmHg 55%
07:00 +18°C° 0 mm 3 m/s 623 mmHg 51%
08:00 +20°C° 0 mm 3 m/s 624 mmHg 47%
09:00 +21°C° 0 mm 3 m/s 624 mmHg 44%
10:00 +22°C° 0 mm 3 m/s 625 mmHg 40%
11:00 +25°C° 0 mm 3 m/s 625 mmHg 37%
12:00 +26°C° 0 mm 4 m/s 625 mmHg 34%
13:00 +26°C° 0 mm 4 m/s 625 mmHg 33%
14:00 +27°C° 0 mm 4 m/s 625 mmHg 33%
15:00 +27°C° 0 mm 5 m/s 625 mmHg 32%
16:00 +26°C° 0 mm 4 m/s 625 mmHg 37%
17:00 +25°C° 0 mm 4 m/s 624 mmHg 41%
18:00 +22°C° 0 mm 3 m/s 624 mmHg 46%
19:00 +21°C° 0 mm 3 m/s 624 mmHg 51%
20:00 +19°C° 0 mm 3 m/s 624 mmHg 56%
21:00 +18°C° 0 mm 2 m/s 624 mmHg 61%
22:00 +18°C° 0 mm 2 m/s 624 mmHg 58%
23:00 +18°C° 0 mm 2 m/s 624 mmHg 56%

21 Maio, Sexta-feira

Tempo Temperatura Precipitação Vento Pressão Humidade
00:00 +17°C° 0 mm 2 m/s 623 mmHg 53%
01:00 +17°C° 0 mm 2 m/s 623 mmHg 52%
02:00 +17°C° 0 mm 2 m/s 623 mmHg 51%
03:00 +18°C° 0 mm 1 m/s 623 mmHg 50%
04:00 +18°C° 0 mm 1 m/s 624 mmHg 51%
05:00 +18°C° 0 mm 1 m/s 624 mmHg 51%
06:00 +19°C° 0 mm 1 m/s 625 mmHg 51%
07:00 +20°C° 0 mm 2 m/s 625 mmHg 44%
08:00 +22°C° 0 mm 3 m/s 626 mmHg 38%
09:00 +25°C° 0 mm 4 m/s 626 mmHg 32%
10:00 +26°C° 0 mm 4 m/s 626 mmHg 29%
11:00 +27°C° 0 mm 5 m/s 626 mmHg 27%
12:00 +28°C° 0 mm 5 m/s 626 mmHg 24%
13:00 +29°C° 0 mm 6 m/s 626 mmHg 23%
14:00 +30°C° 0 mm 6 m/s 626 mmHg 21%
15:00 +30°C° 0 mm 6 m/s 626 mmHg 19%
16:00 +29°C° 0 mm 5 m/s 625 mmHg 25%
17:00 +27°C° 0 mm 5 m/s 625 mmHg 31%
18:00 +26°C° 0 mm 4 m/s 624 mmHg 37%
19:00 +23°C° 0 mm 4 m/s 624 mmHg 42%
20:00 +22°C° 0 mm 3 m/s 624 mmHg 48%
21:00 +21°C° 0 mm 2 m/s 624 mmHg 53%
22:00 +20°C° 0 mm 2 m/s 624 mmHg 54%
23:00 +19°C° 0 mm 2 m/s 624 mmHg 54%

22 Maio, Sábado

Tempo Temperatura Precipitação Vento Pressão Humidade
00:00 +19°C° 0 mm 2 m/s 624 mmHg 55%
01:00 +19°C° 0 mm 2 m/s 624 mmHg 54%
02:00 +19°C° 0 mm 2 m/s 623 mmHg 53%
03:00 +18°C° 0 mm 2 m/s 623 mmHg 52%
04:00 +19°C° 0 mm 2 m/s 623 mmHg 51%
05:00 +19°C° 0 mm 2 m/s 623 mmHg 49%
06:00 +20°C° 0 mm 2 m/s 624 mmHg 48%
07:00 +22°C° 0 mm 3 m/s 624 mmHg 41%
08:00 +25°C° 0 mm 3 m/s 625 mmHg 34%
09:00 +27°C° 0 mm 4 m/s 625 mmHg 27%
10:00 +28°C° 0 mm 4 m/s 625 mmHg 25%
11:00 +29°C° 0 mm 5 m/s 625 mmHg 23%
12:00 +30°C° 0 mm 5 m/s 625 mmHg 20%
13:00 +29°C° 0 mm 5 m/s 625 mmHg 23%
14:00 +28°C° 0 mm 5 m/s 624 mmHg 25%
15:00 +27°C° 0 mm 5 m/s 623 mmHg 27%
16:00 +30°C° 0 mm 4 m/s 624 mmHg 22%
17:00 +28°C° 0 mm 4 m/s 624 mmHg 30%
18:00 +26°C° 0 mm 3 m/s 624 mmHg 38%
19:00 +25°C° 0 mm 3 m/s 623 mmHg 38%
20:00 +23°C° 0 mm 2 m/s 623 mmHg 39%
21:00 +22°C° 0 mm 1 m/s 623 mmHg 40%
22:00 +22°C° 0.1 mm 1 m/s 623 mmHg 39%
23:00 +21°C° 0.1 mm 2 m/s 623 mmHg 38%

23 Maio, Domingo

Tempo Temperatura Precipitação Vento Pressão Humidade
00:00 +21°C° 0.1 mm 2 m/s 623 mmHg 36%
01:00 +21°C° 0 mm 2 m/s 623 mmHg 37%
02:00 +21°C° 0 mm 1 m/s 622 mmHg 38%
03:00 +21°C° 0 mm 1 m/s 621 mmHg 39%
04:00 +22°C° 0 mm 1 m/s 622 mmHg 38%
05:00 +22°C° 0 mm 1 m/s 622 mmHg 36%
06:00 +23°C° 0 mm 1 m/s 622 mmHg 35%
07:00 +25°C° 0 mm 1 m/s 623 mmHg 32%
08:00 +26°C° 0 mm 2 m/s 623 mmHg 28%
09:00 +28°C° 0 mm 3 m/s 624 mmHg 25%
10:00 +29°C° 0 mm 3 m/s 623 mmHg 23%
11:00 +30°C° 0 mm 3 m/s 623 mmHg 20%
12:00 +32°C° 0 mm 4 m/s 623 mmHg 18%
13:00 +28°C° 0.2 mm 4 m/s 623 mmHg 27%
14:00 +25°C° 0.2 mm 4 m/s 622 mmHg 37%
15:00 +21°C° 0.2 mm 5 m/s 622 mmHg 46%
16:00 +21°C° 0.2 mm 5 m/s 622 mmHg 48%
17:00 +20°C° 0.2 mm 5 m/s 622 mmHg 50%
18:00 +20°C° 0.2 mm 5 m/s 622 mmHg 52%
19:00 +19°C° 0 mm 4 m/s 622 mmHg 55%
20:00 +19°C° 0 mm 3 m/s 622 mmHg 57%
21:00 +18°C° 0 mm 2 m/s 622 mmHg 60%
22:00 +18°C° 0 mm 2 m/s 621 mmHg 60%
23:00 +18°C° 0 mm 1 m/s 621 mmHg 60%
Mostrar mais

Necessitamos do seu Consentimento

A Meteoprog e os seus Fornecedores de Serviços podem armazenar e aceder a dados pessoais como cookies, identificadores do dispositivo ou outras tecnologias semelhantes existentes no seu dispositivo e processar estes dados para personalizar conteúdos e anúncios, assim como funcionalidades nas redes sociais e análise de tráfego.

  • Armazenar e/ou aceder a informações no seu dispositivo

    Os cookies, identificadores do dispositivo ou outras informações podem ser armazenados ou acedidos no seu dispositivo, para os fins acima indicados.

  • Anúncios e conteúdos personalizados, medição de anúncios e conteúdos, dados sobre o público-alvo e desenvolvimento de produtos

    Os anúncios e os conteúdos podem ser personalizados com base num perfil. Podem ser adicionados dados adicionais para uma maior personalização dos anúncios e dos conteúdos. A eficácia dos anúncios e dos conteúdos pode ser medida. Podem ser obtidas informações sobre o público que visualizou os anúncios e os conteúdos. Estes dados podem ser usados para desenvolver ou melhorar sistemas, softwares ou a experiência do utilizador.

Ao clicar em "Eu concordo”, permitirá o uso de cookies, identificadores do dispositivo e web beacons mencionados ou outras tecnologias semelhantes. As configurações do navegador do seu dispositivo podem ser alteradas.

Para certos fins, podem ser invocados interesses legítimos ao invés de consentimento. Pode ler mais informação sobre este assunto na nossa Política de Privacidade e Cookies.